CAPE
0 0 0 0 0 8 4 0 2 10 0 67 202 168 124 506 344 284 215 327 419 408 381 196 150 116 159 272 291 191 97 150 358 328 428 563 812 808 874 1125 963 850 663 416
0 0 0 0 0 1 5 0 13 18 8 13 3 3 88 331 274 251 404 301 453 477 505 373 248 179 164 97 195 144 154 197 313 421 781 998 934 1027 1057 904 766 637 575 616
0 0 0 0 0 0 9 0 15 10 3 0 2 0 7 408 545 423 554 379 409 581 635 595 455 306 271 296 268 275 296 363 499 625 757 1147 1048 969 803 789 774 584 628 429
0 0 0 0 0 0 3 1 18 17 6 0 0 0 0 16 294 624 605 460 622 505 581 395 498 375 371 367 436 408 479 576 747 858 985 1072 997 928 876 764 585 481 449 558
0 0 0 0 0 0 0 0 3 9 5 0 0 0 0 125 203 153 370 409 328 417 279 213 455 435 392 558 533 772 796 715 601 1178 1380 1244 1121 1269 1242 998 873 715 601 671
0 0 0 0 0 0 1 0 0 9 16 9 1 0 0 0 51 232 174 260 327 403 247 173 262 585 425 594 669 790 987 1086 910 519 1589 1612 1524 1435 1223 987 791 736 454 48
0 0 0 0 0 11 0 10 0 0 5 15 0 0 0 0 0 120 195 175 324 386 248 308 255 438 519 659 734 758 987 1277 1251 643 1069 1605 1811 1576 1260 1101 932 458 26 0
0 0 0 0 0 0 0 5 1 0 20 17 0 0 0 0 12 6 100 295 306 407 245 328 354 493 455 689 802 909 960 1350 1453 943 1299 1823 1895 1553 1280 896 749 22 0 22
0 0 0 0 0 0 0 0 0 0 0 0 0 0 0 0 0 0 0 256 328 438 250 416 323 613 753 732 832 1021 1135 1264 1657 1510 1713 1994 1787 1606 1296 1086 37 0 35 152
0 0 0 0 0 0 0 0 0 0 0 0 0 0 2 0 0 0 0 0 250 486 372 448 386 489 1080 1019 1189 1291 1279 1408 1915 2018 2168 1984 1916 1902 1300 689 0 16 121 322
0 0 0 0 0 0 0 0 0 0 0 0 0 0 1 0 0 14 24 11 77 324 468 547 427 1080 1598 1844 1986 1861 1671 1888 2144 2462 2360 2083 1924 1270 600 0 4 59 192 346
0 0 0 0 0 0 0 2 0 0 0 0 0 0 0 0 1 5 75 122 171 313 527 625 744 1413 1880 2043 2104 2104 2241 2440 2512 2582 2248 2118 1549 790 0 20 55 230 370 348
0 0 0 0 0 0 0 0 0 0 0 0 0 0 0 1 20 106 198 556 521 637 868 1088 1212 1547 1856 2100 2272 2376 2625 2691 2572 2212 2290 2002 1485 35 7 71 191 449 438 325
0 0 0 0 0 0 0 0 0 0 0 0 0 0 0 4 16 34 238 574 776 1016 907 1272 1405 1636 1881 2104 2324 2478 2310 2348 2053 2006 1953 1796 1123 174 54 238 525 477 465 273
0 0 0 0 0 0 0 0 0 0 0 0 0 0 0 0 0 12 241 547 815 763 477 328 902 1480 1919 2119 2143 2076 1094 762 896 933 987 1091 139 194 405 592 469 396 269 114
15 14 15 0 0 0 0 0 0 0 0 0 0 0 3 17 15 138 374 508 780 673 752 857 814 1263 1845 2107 2089 1194 520 2 126 141 209 511 368 633 623 499 356 191 95 30
53 40 48 3 5 0 0 0 0 0 0 0 0 0 0 0 38 107 417 577 603 705 528 808 1205 1379 1803 1974 1959 1301 695 87 57 108 43 411 674 548 513 358 184 78 14 0
203 157 86 80 93 8 0 0 0 0 0 0 38 0 6 8 87 266 525 647 594 612 673 878 1307 1496 1721 1954 1699 1059 569 346 84 137 323 656 565 495 379 243 132 22 0 0
272 243 120 85 79 32 6 4 27 9 0 515 247 97 35 0 104 545 1036 1130 750 505 431 569 1384 1557 1662 1767 1793 1173 480 322 455 550 455 561 435 296 293 271 79 0 0 0
69 159 132 35 41 16 1 48 160 64 0 665 492 190 19 11 6 111 1580 1648 1567 1056 524 608 1491 1614 1752 1474 971 445 333 360 665 450 567 554 427 371 268 17 0 0 0 0
26 30 10 26 5 4 50 80 221 14 0 513 264 225 115 48 29 901 1924 1571 1420 1408 1234 1283 1322 1257 1530 602 262 287 221 380 381 478 354 408 392 127 0 0 0 0 0 0
36 4 0 0 0 0 24 283 152 15 690 672 425 143 886 1474 1763 2018 1580 1408 1826 1872 1638 1369 1055 1299 817 342 74 209 322 371 462 580 195 264 151 3 0 0 0 0 0 0
1 4 20 12 12 43 51 251 280 333 550 752 433 574 1074 1687 1891 1983 2231 1836 1757 2014 2060 1986 1723 1416 1239 517 411 553 503 629 729 371 165 114 1 0 0 0 0 0 0 0
0 0 0 7 74 116 150 342 872 750 722 784 712 475 546 676 1582 1826 1869 1958 1992 1888 2258 2206 1933 1551 1292 984 741 512 730 608 185 68 4 0 0 0 0 0 0 0 0 0
0 12 0 0 7 36 152 361 829 963 760 934 612 291 142 133 1260 1399 2122 1462 1603 1721 1803 1706 1520 1288 1164 753 862 870 334 146 77 7 0 0 0 0 0 0 0 0 0 0
12 0 0 0 7 17 122 147 447 753 536 613 476 387 524 839 1037 1207 1310 1338 1543 1580 1446 1250 1011 762 637 666 567 243 159 44 83 0 0 0 0 0 0 0 0 0 0 0
CIN
-0 -0 -0 -0 -0 -6 -8 -0 -2 -5 -0 -146 -152 -141 -125 -226 -248 -125 -75 -452 -72 -73 -69 -66 -58 -57 -156 -122 -111 -138 -93 -204 -86 -237 -199 -159 -143 -155 -100 -46 -54 -72 -40 -78
-0 -0 -0 -0 -0 -2 -9 -0 -12 -2 -7 -119 -67 -109 -182 -435 -257 -146 -115 -414 -215 -88 -52 -60 -118 -62 -34 -155 -94 -71 -335 -45 -320 -230 -137 -82 -55 -60 -64 -39 -61 -37 -149 -84
-0 -0 -0 -0 -0 -0 -84 -0 -11 -14 -4 -0 -3 -6 -142 -413 -468 -378 -136 -199 -187 -108 -77 -50 -86 -35 -39 -14 -23 -22 -175 -262 -282 -204 -124 -74 -58 -56 -42 -45 -35 -23 -58 -55
-0 -0 -0 -0 -0 -0 -63 -0 -3 -5 -7 -0 -0 -0 -0 -134 -386 -346 -215 -178 -199 -166 -150 -101 -63 -39 -27 -27 -15 -15 -34 -132 -206 -164 -95 -62 -38 -38 -20 -43 -40 -42 -93 -41
-0 -0 -0 -0 -0 -0 -0 -0 -4 -33 -6 -0 -0 -0 -0 -543 -344 -369 -374 -297 -172 -56 -186 -136 -63 -43 -31 -17 -26 -12 -14 -35 -51 -108 -68 -51 -59 -26 -11 -23 -49 -28 -30 -42
-0 -0 -0 -0 -0 -0 -23 -0 -0 -40 -29 -52 -20 -0 -0 -0 -310 -408 -405 -348 -147 -63 -49 -56 -53 -46 -51 -37 -22 -18 -14 -17 -41 -58 -71 -43 -31 -17 -15 -14 -43 -37 -4 -115
-0 -0 -0 -0 -0 -99 -0 -30 -0 -0 -59 -45 -0 -0 -0 -0 -0 -473 -361 -346 -144 -94 -62 -27 -562 -61 -52 -26 -23 -28 -19 -18 -35 -67 -187 -70 -15 -10 -20 -10 -5 -13 -8 -0
-0 -0 -0 -0 -0 -0 -0 -5 -0 -0 -38 -25 -0 -0 -0 -0 -105 -86 -193 -190 -221 -89 -91 -26 -93 -434 -279 -37 -34 -25 -34 -27 -40 -57 -165 -45 -23 -14 -6 -11 -7 -3 -83 -118
-0 -0 -0 -0 -0 -0 -0 -0 -1 -0 -0 -0 -0 -0 -0 -0 -0 -0 -0 -491 -308 -105 -88 -40 -48 -435 -326 -50 -42 -39 -33 -34 -49 -46 -76 -27 -16 -14 -10 -5 -106 -2 -104 -41
-0 -0 -0 -0 -0 -0 -0 -0 -0 -0 -0 -0 -0 -0 -38 -0 -0 -0 -0 -0 -403 -171 -91 -34 -32 -435 -441 -280 -358 -354 -33 -67 -46 -31 -21 -23 -22 -9 -10 -25 -0 -84 -60 -41
-0 -0 -0 -0 -0 -0 -0 -0 -0 -0 -0 -0 -0 -0 -14 -0 -0 -83 -206 -361 -554 -397 -49 -38 -45 -483 -360 -300 -257 -272 -279 -81 -58 -15 -8 -12 -3 -13 -69 -0 -46 -65 -32 -13
-0 -0 -0 -0 -0 -0 -0 -2 -0 -0 -0 -0 -0 -0 -0 -0 -47 -98 -258 -597 -543 -652 -64 -57 -379 -441 -310 -255 -235 -230 -165 -81 -64 -11 -15 -3 -6 -45 -0 -110 -76 -74 -26 -24
-0 -0 -0 -0 -0 -0 -0 -0 -0 -0 -0 -0 -0 -0 -0 -179 -106 -299 -282 -580 -610 -674 -563 -464 -462 -411 -357 -267 -221 -148 -106 -72 -30 -2 -4 -4 -11 -246 -86 -87 -112 -31 -34 -36
-0 -0 -0 -0 -0 -0 -0 -0 -0 -0 -0 -0 -0 -0 -0 -137 -221 -235 -332 -536 -391 -382 -302 -367 -369 -416 -305 -285 -178 -76 -63 -43 -21 -12 -12 -5 -18 -129 -145 -142 -32 -44 -33 -38
-0 -0 -0 -0 -0 -0 -0 -0 -0 -0 -0 -0 -0 -0 -0 -0 -0 -175 -581 -495 -228 -451 -401 -55 -422 -375 -307 -231 -142 -56 -58 -2 -16 -21 -8 -7 -184 -193 -105 -36 -19 -48 -43 -58
-19 -52 -70 -0 -0 -0 -0 -0 -0 -0 -0 -0 -0 -0 -62 -44 -67 -757 -568 -422 -315 -99 -378 -429 -452 -443 -306 -214 -149 -109 -103 -83 -85 -28 -8 -16 -138 -51 -30 -54 -54 -65 -72 -68
-96 -90 -90 -17 -20 -0 -0 -0 -0 -0 -0 -0 -0 -0 -0 -0 -60 -388 -496 -333 -264 -243 -115 -473 -388 -330 -297 -241 -141 -34 -39 -74 -232 -71 -225 -7 -23 -23 -38 -49 -51 -62 -61 -0
-95 -78 -82 -61 -62 -31 -0 -0 -0 -0 -0 -0 -210 -0 -58 -99 -117 -132 -162 -179 -126 -145 -104 -489 -347 -336 -288 -207 -82 -63 -56 -64 -121 -87 -65 -24 -19 -24 -18 -28 -24 -34 -0 -0
-82 -73 -63 -47 -42 -42 -20 -33 -190 -47 -0 -192 -232 -165 -118 -0 -365 -506 -567 -523 -515 -123 -234 -451 -348 -258 -195 -136 -82 -44 -74 -56 -111 -28 -41 -54 -13 -42 -38 -35 -26 -0 -0 -0
-41 -77 -61 -59 -43 -24 -3 -250 -263 -255 -0 -295 -537 -69 -55 -540 -121 -134 -487 -421 -351 -376 -44 -215 -279 -180 -84 -97 -65 -35 -112 -254 -110 -70 -62 -31 -31 -36 -36 -16 -0 -0 -0 -0
-34 -34 -80 -55 -42 -53 -54 -160 -244 -24 -0 -478 -409 -646 -492 -172 -196 -677 -395 -359 -489 -72 -58 -395 -301 -247 -78 -52 -265 -126 -102 -219 -137 -94 -55 -37 -43 -39 -0 -0 -0 -0 -0 -0
-62 -19 -0 -0 -0 -0 -66 -228 -117 -189 -464 -515 -565 -114 -580 -459 -345 -304 -262 -360 -402 -272 -87 -104 -280 -222 -55 -78 -439 -237 -80 -31 -97 -47 -121 -76 -49 -50 -0 -0 -0 -0 -0 -0
-7 -115 -114 -127 -86 -158 -102 -148 -326 -403 -397 -481 -482 -480 -465 -364 -280 -270 -313 -225 -303 -318 -185 -103 -67 -186 -94 -70 -79 -81 -33 -75 -49 -61 -71 -44 -7 -0 -0 -0 -0 -0 -0 -0
-0 -0 -0 -7 -104 -171 -88 -106 -158 -246 -324 -380 -423 -280 -336 -392 -418 -361 -300 -297 -256 -208 -138 -108 -109 -108 -72 -54 -52 -61 -59 -69 -72 -61 -59 -0 -0 -0 -0 -0 -0 -0 -0 -0
-0 -130 -0 -0 -54 -116 -61 -58 -77 -151 -132 -226 -219 -233 -122 -350 -396 -292 -298 -269 -264 -206 -141 -123 -114 -130 -93 -89 -73 -58 -70 -55 -39 -7 -0 -0 -0 -0 -0 -0 -0 -0 -0 -0
-70 -0 -0 -4 -48 -46 -47 -37 -47 -48 -67 -76 -100 -117 -382 -408 -366 -251 -262 -230 -165 -159 -114 -134 -100 -119 -126 -110 -108 -70 -23 -52 -60 -0 -0 -0 -0 -0 -0 -0 -0 -0 -0 -0
Wind_Speed
nan nan nan nan nan nan nan nan nan nan nan nan 5 20 12 12 14 18 20 25 24 14 12 20 24 25 18 14 15 15 nan 12 9 4 2 2 5 4 6 6 5 7 9 12
nan nan nan nan nan nan nan nan nan nan nan nan nan nan nan 10 17 19 24 23 24 14 9 14 18 21 24 nan 18 12 14 13 11 5 3 3 6 7 11 8 11 14 14 14
nan nan nan nan nan nan nan nan nan nan nan nan nan nan nan 1 3 13 17 19 20 18 11 10 15 20 17 18 21 19 17 15 10 6 3 5 3 4 5 6 8 10 12 10
nan nan nan nan nan nan nan nan nan nan nan nan nan nan nan nan 2 13 10 12 12 18 13 9 14 15 17 17 13 12 11 11 8 9 5 8 8 7 6 6 7 8 10 9
nan nan nan nan nan nan nan nan nan nan nan nan nan nan nan 15 5 8 18 9 9 14 14 15 19 19 9 12 14 13 13 11 11 12 12 10 9 8 7 7 10 11 9 10
nan nan nan nan nan nan nan nan nan nan nan nan nan nan nan nan nan 12 12 11 9 12 15 12 15 16 15 10 12 13 13 11 12 13 14 14 12 13 12 13 12 11 11 nan
nan nan nan nan nan nan nan nan nan nan nan nan nan nan nan nan nan 16 12 15 12 11 19 17 16 14 15 14 13 13 13 12 13 14 13 12 14 15 18 19 18 17 nan nan
nan nan nan nan nan nan nan nan nan nan nan nan nan nan nan nan nan nan 10 3 8 17 17 19 19 11 11 14 14 11 12 10 11 12 11 9 12 16 18 19 19 nan nan nan
nan nan nan nan nan nan nan nan nan nan nan nan nan nan nan nan nan nan nan 8 9 16 28 28 27 21 15 9 12 14 13 10 11 11 8 10 11 16 16 19 nan nan nan 18
nan nan nan nan nan nan nan nan nan nan nan nan nan nan nan nan nan nan nan nan 6 14 22 25 23 20 15 17 7 11 12 12 11 9 11 10 10 14 14 15 nan nan 16 12
nan nan nan nan nan nan nan nan nan nan nan nan nan nan nan nan nan nan nan nan nan 9 16 24 26 30 17 19 13 11 15 16 13 10 11 14 12 14 17 nan nan nan 10 8
nan nan nan nan nan nan nan nan nan nan nan nan nan nan nan nan nan nan nan 7 1 14 17 17 26 28 19 19 15 12 16 17 16 15 17 16 15 15 nan nan nan 19 16 12
nan nan nan nan nan nan nan nan nan nan nan nan nan nan nan nan nan 3 10 5 6 9 20 21 26 21 20 24 20 16 22 21 18 14 19 19 19 nan nan nan 22 23 24 22
nan nan nan nan nan nan nan nan nan nan nan nan nan nan nan nan nan nan 8 11 7 8 20 19 22 19 21 25 26 29 31 30 26 19 22 25 24 18 nan 18 17 20 25 27
nan nan nan nan nan nan nan nan nan nan nan nan nan nan nan nan nan nan 8 10 4 9 12 17 18 18 15 29 42 48 58 44 42 41 39 31 22 22 20 19 18 14 20 23
nan nan nan nan nan nan nan nan nan nan nan nan nan nan nan nan nan 9 12 5 9 12 10 15 23 27 29 32 35 44 51 nan 10 32 13 16 30 25 22 19 19 21 nan nan
nan nan nan nan nan nan nan nan nan nan nan nan nan nan nan nan nan 9 3 3 8 17 19 22 22 23 28 32 38 35 39 nan nan 32 nan 16 17 18 24 15 25 nan nan nan
37 37 nan nan nan nan nan nan nan nan nan nan nan nan nan nan nan 28 16 8 3 17 24 17 17 21 24 24 31 28 33 33 nan 28 23 20 21 19 16 18 27 nan nan nan
41 43 39 nan nan nan nan nan nan nan nan 38 31 nan nan nan 32 30 24 14 15 14 23 21 15 19 25 28 34 26 27 27 31 32 28 26 27 28 22 27 nan nan nan nan
nan 46 49 nan nan nan nan nan 30 nan nan 39 35 28 nan nan nan 16 23 25 20 20 29 30 32 32 36 32 28 22 26 28 29 26 25 31 32 29 29 nan nan nan nan nan
nan nan nan nan nan nan nan nan 20 nan nan 30 36 32 30 nan nan 19 22 29 28 32 34 41 38 39 46 34 36 23 19 24 24 28 28 32 31 32 nan nan nan nan nan nan
nan nan nan nan nan nan nan 23 22 nan 21 27 31 26 31 32 22 20 26 30 37 43 43 43 41 38 38 33 nan 24 24 23 28 32 33 31 30 nan nan nan nan nan nan nan
nan nan nan nan nan nan nan 20 19 17 17 25 30 30 31 27 26 28 22 28 38 46 45 38 40 35 27 27 31 31 28 27 30 33 33 33 nan nan nan nan nan nan nan nan
nan nan nan nan nan 9 8 18 22 17 18 30 29 20 18 25 30 28 28 29 40 33 50 53 47 45 32 28 27 33 30 29 31 nan nan nan nan nan nan nan nan nan nan nan
nan nan nan nan nan nan 19 22 24 22 20 30 30 27 28 25 26 8 24 29 47 48 38 28 26 27 26 28 28 29 29 29 nan nan nan nan nan nan nan nan nan nan nan nan
nan nan nan nan nan nan 12 22 22 33 28 24 30 34 24 23 29 25 33 33 36 50 34 31 30 28 26 28 30 30 31 nan nan nan nan nan nan nan nan nan nan nan nan nan
Wind_Direction
nan nan nan nan nan nan nan nan nan nan nan nan 72 79 54 46 37 27 21 17 13 19 33 27 24 23 27 38 45 53 nan 49 41 81 92 357 329 316 292 300 342 318 319 328
nan nan nan nan nan nan nan nan nan nan nan nan nan nan nan 62 43 20 15 17 14 354 19 22 24 17 27 nan 38 43 50 32 38 40 59 57 34 8 24 6 17 2 348 320
nan nan nan nan nan nan nan nan nan nan nan nan nan nan nan 219 357 2 16 358 359 5 2 22 20 19 14 28 35 36 45 45 29 28 64 70 43 7 10 344 4 354 340 341
nan nan nan nan nan nan nan nan nan nan nan nan nan nan nan nan 129 1 10 0 9 345 336 2 1 1 7 14 12 17 30 30 29 10 41 32 43 25 10 336 344 325 331 338
nan nan nan nan nan nan nan nan nan nan nan nan nan nan nan 218 219 341 355 18 357 350 2 18 24 6 359 336 351 356 359 15 8 358 354 354 346 352 328 338 326 332 318 309
nan nan nan nan nan nan nan nan nan nan nan nan nan nan nan nan nan 321 341 359 348 326 330 349 358 355 352 307 310 323 333 349 360 3 357 352 333 316 310 299 293 301 313 nan
nan nan nan nan nan nan nan nan nan nan nan nan nan nan nan nan nan 324 331 360 2 331 315 315 330 347 344 337 306 298 316 336 351 3 5 353 332 323 311 308 302 299 nan nan
nan nan nan nan nan nan nan nan nan nan nan nan nan nan nan nan nan nan 330 280 350 328 307 308 330 321 343 336 323 318 316 320 352 354 1 346 325 319 322 316 307 nan nan nan
nan nan nan nan nan nan nan nan nan nan nan nan nan nan nan nan nan nan nan 290 341 329 315 341 354 328 318 327 329 336 328 324 339 353 335 333 323 315 323 325 nan nan nan 275
nan nan nan nan nan nan nan nan nan nan nan nan nan nan nan nan nan nan nan nan 43 337 332 329 314 319 306 305 314 334 330 325 325 338 333 329 318 306 310 312 nan nan 336 304
nan nan nan nan nan nan nan nan nan nan nan nan nan nan nan nan nan nan nan nan nan 315 328 327 319 310 272 285 300 326 319 311 316 322 310 301 305 308 307 nan nan nan 324 297
nan nan nan nan nan nan nan nan nan nan nan nan nan nan nan nan nan nan nan 212 60 330 307 306 320 307 277 282 292 304 296 295 306 308 300 298 291 293 nan nan nan 308 295 272
nan nan nan nan nan nan nan nan nan nan nan nan nan nan nan nan nan 136 216 247 328 301 298 307 309 319 289 286 280 288 284 276 273 278 286 276 273 nan nan nan 303 289 281 274
nan nan nan nan nan nan nan nan nan nan nan nan nan nan nan nan nan nan 258 321 345 315 293 301 302 309 275 280 269 250 245 250 251 245 255 264 271 281 nan 308 302 292 288 284
nan nan nan nan nan nan nan nan nan nan nan nan nan nan nan nan nan nan 319 312 320 329 317 313 315 311 279 263 262 265 252 226 238 230 231 230 262 263 286 297 305 298 291 283
nan nan nan nan nan nan nan nan nan nan nan nan nan nan nan nan nan 299 312 322 11 11 343 327 313 298 290 279 280 293 293 nan 294 325 333 253 326 266 262 282 300 301 nan nan
nan nan nan nan nan nan nan nan nan nan nan nan nan nan nan nan nan 315 351 342 30 350 319 318 312 297 294 289 290 303 308 nan nan 354 nan 358 309 311 276 279 299 nan nan nan
250 254 nan nan nan nan nan nan nan nan nan nan nan nan nan nan nan 267 256 263 179 274 301 294 305 295 290 292 301 308 307 330 nan 351 350 342 332 333 314 302 300 nan nan nan
239 247 248 nan nan nan nan nan nan nan nan 246 252 nan nan nan 256 251 250 266 258 280 288 290 297 293 294 295 284 300 303 318 328 338 339 322 321 321 317 308 nan nan nan nan
nan 244 247 nan nan nan nan nan 273 nan nan 244 251 270 nan nan nan 275 256 268 276 287 285 284 282 291 296 286 277 265 306 321 327 327 320 320 320 316 312 nan nan nan nan nan
nan nan nan nan nan nan nan nan 256 nan nan 239 242 261 258 nan nan 268 262 263 266 266 276 280 283 289 286 287 310 334 309 326 315 309 309 309 313 310 nan nan nan nan nan nan
nan nan nan nan nan nan nan 248 276 nan 258 238 227 246 257 252 264 265 261 270 276 276 273 278 290 301 309 325 nan 311 328 323 307 307 306 307 308 nan nan nan nan nan nan nan
nan nan nan nan nan nan nan 248 231 265 250 244 233 235 262 268 259 261 256 284 281 282 268 273 286 296 295 303 305 307 314 311 302 297 302 303 nan nan nan nan nan nan nan nan
nan nan nan nan nan 266 234 225 226 229 241 236 232 236 260 217 254 263 269 278 289 272 279 278 267 281 285 286 294 304 318 311 307 nan nan nan nan nan nan nan nan nan nan nan
nan nan nan nan nan nan 241 228 219 215 251 238 225 245 251 245 260 243 270 263 267 269 272 279 277 269 276 282 293 299 297 299 nan nan nan nan nan nan nan nan nan nan nan nan
nan nan nan nan nan nan 227 231 226 209 219 226 234 233 229 258 266 260 258 262 275 265 254 263 267 270 278 283 284 282 287 nan nan nan nan nan nan nan nan nan nan nan nan nan